Tracking 26325 objects as of 28-Nov-2022
HD Live streaming from Space Station
objects crossing your sky now

YZ-1S DEB

Track YZ-1S DEB now!
10-day predictions


NORAD ID: 43644
Int'l Code: 2018-077C
Perigee: 690.4 km
Apogee: 701.9 km
Inclination: 98.1 °
Period: 98.5 minutes
Semi major axis: 7067 km
RCS: Unknown
Launch date: October 9, 2018
Source: People's Republic of China (PRC)
Launch site: Jiuquan Satellite Launch Center, China (JSC)

Note: This is SATELLITE DEBRIS
aabbcc
Your satellite tracking list
Your tracking list is empty




NASA's NSSDC Master Catalog

Two Line Element Set (TLE):
1 43644U 18077C   22332.40384589  .00001236  00000-0  25963-3 0  9997
2 43644  98.0879  24.7949 0008112 205.8496 154.2301 14.61290748220546
Source of the keplerian elements: AFSPC